Regional Weather Roundup
Issued by NWS Lake Charles, LA

Home | Current Version | Previous Version | Text Only | Print | Product List | Glossary On
Versions: 1 2 3 4 5 6 7 8 9 10 11 12 13 14 15 16 17 18 19 20 21 22 23 24 25 26 27 28 29 30 31 32 33 34 35 36 37 38 39 40 41 42 43 44 45 46 47 48 49 50
000
ASUS44 KLCH 180810
RWRLCH
RWRLCH
REGIONAL WEATHER ROUNDUP
NATIONAL WEATHER SERVICE LAKE CHARLES LA
200 AM CST THU DEC 18 2014

Note: "fair" indicates few or no clouds below 12,000 feet with no
significant weather and/or obstructions to visibility.


ACROSS SOUTHEAST TEXAS

CITY           SKY/WX    TMP DP  RH WIND       PRES   REMARKS
BEAUMONT       CLOUDY    60  55  83 E8        30.11F
BEAUMONT CITY  CLOUDY    57  52  82 E3        30.11F
ORANGE         CLOUDY    56  52  85 CALM      30.13S
JASPER         CLOUDY    52  45  76 SE3       30.15S
$$

ACROSS CENTRAL LOUISIANA

CITY           SKY/WX    TMP DP  RH WIND       PRES   REMARKS
LEESVILLE      CLOUDY    52  43  70 E5        30.14F
FULLERTON      CLOUDY    53  43  68 CALM      30.13F
ALEXANDRIA INT CLOUDY    50  43  77 CALM      30.16S
ESLER FIELD    CLOUDY    50  42  74 E3        30.17F
DERIDDER       CLOUDY    52  43  72 E3        30.16F
OAKDALE        CLOUDY    49  44  83 CALM      30.15F
OPELOUSAS      PTSUNNY   49  42  75 E3        30.16F
$$

ACROSS SOUTHWEST AND SOUTH CENTRAL LOUISIANA

CITY           SKY/WX    TMP DP  RH WIND       PRES   REMARKS
SULPHUR        PTSUNNY   55  50  83 E6        30.13F
LAKE CHARLES   CLOUDY    53  49  86 E6        30.13F
CHENNAULT INT  MOCLDY    51  47  86 E6        30.14S
CAMERON PHI    PTSUNNY   55  52  88 E8        30.14F
DEQUINCY       CLOUDY    51  46  83 E3        30.14S
JENNINGS       CLOUDY    51  46  82 E7        30.15F
LAFAYETTE      MOCLDY    49  42  77 CALM      30.17S
NEW IBERIA     MOCLDY    50  44  80 E5        30.17F
ABBEVILLE        N/A     48  44  86 E3        30.16F
PATTERSON      MOCLDY    48  45  87 NE3       30.17F
SALT POINT       N/A     54  48  80 E3        30.15F
$$

SELECTED SITES ACROSS THE REGION

CITY           SKY/WX    TMP DP  RH WIND       PRES   REMARKS
HOUSTON BUSH   MOCLDY    58  55  90 E6        30.08F
HOUSTON HOBBY  MOCLDY    62  61  96 E5        30.07F
GALVESTON      CLOUDY    66  65  96 E8        30.09S
COLLEGE STAT   CLOUDY    52  49  89 NE5       30.10F
CONROE         CLOUDY    57  52  83 CALM      30.10S
HUNTSVILLE     LGT RAIN  55  49  80 CALM      30.10S
LUFKIN         CLOUDY    54  46  74 NE5       30.12S
SHREVEPORT     LGT RAIN  45  43  93 E9        30.16F
MONROE         CLOUDY    45  41  86 NE8       30.23R
NATCHEZ MS     CLOUDY    46  41  81 CALM      30.20R
BATON ROUGE    CLOUDY    45  42  89 W3        30.19R
N.O. INTL ARPT CLOUDY    50  41  71 CALM      30.17S
SLIDELL        PTCLDY    44  40  85 CALM      30.18R
$$

MARINE REPORTS

STATION/POSITION TIME  TEMP    WIND        PRES    VSBY  WAVE
                       AIR SEA DIR/SP/G                  HT/PER
                 (UTC) (F)     (DEG/KT/KT) (MB)    (MI)  (FT/S)
BUOY 30 S HIGH I 0800   66 65  120/ 10/ 12 1018.2F         4/ 5
SEA RIM ST PARK  0800   62     100/  8/ 10 1019.8F
PORT ARTHUR      0800      62   90/  4/  6 1019.6F
SABINE PASS N    0800   62 62  100/  8/ 10 1019.2F
TEXAS POINT      NOT AVBL
CALCASIEU PASS   0800   57 61  100/  9/ 12   N/A
LK CHARLES BEACH 0800   53 63              1020.5F
MARSH ISLAND     NOT AVBL
FRESH WATER LOCK 0800   54 61   40/  4/  5 1021.1S
AMERADA PASS     0800   52 51   70/  3/  5 1021.2F
$$


USA.gov is the U.S. government's official web portal to all federal, state and local government web resources and services.